カタログに戻る

QIANFAN-133

運用中通信PO
NORAD 69079·PAYLOAD·🇨🇳 China

打ち上げ May 12, 2026 から Taiyuan Satellite Launch Center

Loading…

次のパス (今後24時間)

TLE

最新Source: Space-Track

元期: Sep 14, 2026, 14:52 UTC

1 69079U 26104G   26257.61970856  .00000122  00000-0  17069-3 0  9999
2 69079  88.9911 332.3452 0001915 112.6757 247.4597 13.51030203 17224

AllMySatでQIANFAN-133をリアルタイム追跡

Download on the App Store